Regional Weather Roundup
Issued by NWS

Home | Current Version | Previous Version | Graphics & Text | Print | Product List | Glossary On
Versions: 1 2 3 4 5 6 7 8 9 10 11 12 13 14 15 16 17 18 19 20 21 22 23 24 25 26 27
000
ASUS45 KCYS 240310
RWRWY

WYOMING REGIONAL WEATHER ROUNDUP
NATIONAL WEATHER SERVICE CHEYENNE WY
900 PM MDT MON MAY 23 2016

NOTE:  "FAIR" INDICATES FEW OR NO CLOUDS BELOW 12,000 FEET
WITH NO SIGNIFICANT WEATHER AND/OR OBSTRUCTIONS TO VISIBILITY.

WYZ001-240400-
YELLOWSTONE NATIONAL PARK

CITY           SKY/WX    TMP DP  RH WIND       PRES   REMARKS
LK YELLOWSTONE   N/A     35  27  72 CALM      29.94S
W YELLOWSTONE  NOT AVBL

$$
WYZ002>013-054>058-071-098>099-240400-
NORTHERN WYOMING

CITY           SKY/WX    TMP DP  RH WIND       PRES   REMARKS
JACKSON        FAIR      46  25  42 CALM      29.91R
CODY           FAIR      54  28  37 NE9       29.84R
GREYBULL       FAIR      59  27  29 NW7       29.80R
WORLAND        FAIR      50  31  48 CALM      29.80R
SHERIDAN       MOCLDY    49  39  68 W3        29.84R
BUFFALO        FAIR      52  36  54 NW10      29.86R
GILLETTE       FAIR      44  32  62 W5        29.80S
HULETT         FAIR      59  32  36 N6        29.82R
NEWCASTLE      FAIR      57  19  23 W5        29.80R

$$
WYZ014>020-022>026-101>103-240400-
CENTRAL WYOMING

CITY           SKY/WX    TMP DP  RH WIND       PRES   REMARKS
BIG PINEY      FAIR      43  29  57 N9        29.95R
PINEDALE       FAIR      41  30  65 NW8       29.96R
DUBOIS         FAIR      43  23  45 W12       29.91R
LANDER         FAIR      55  24  30 S3        29.84R
RIVERTON       FAIR      50  25  37 NW9       29.86R
CASPER         FAIR      48  28  46 SW9       29.87R
DOUGLAS        FAIR      51  31  46 CALM      29.87S

$$
WYZ021-027>030-104>119-240400-
SOUTHERN WYOMING

CITY           SKY/WX    TMP DP  RH WIND       PRES   REMARKS
EVANSTON       FAIR      49  26  41 W3        29.93S
KEMMERER         N/A     45  28  53 N8        29.95S
FORT BRIDGER   CLEAR     45  36  70 S6        29.98R
ROCK SPRINGS   FAIR      47  32  56 SW8       29.94S
DIXON          FAIR      50  32  51 N8        29.97R
RAWLINS        FAIR      44  29  55 W5        29.95S
SARATOGA       FAIR      45  32  61 N8        29.98R
LARAMIE        FAIR      46  30  53 N7        29.96R
CHEYENNE       FAIR      50  38  63 SW8       29.94R
TORRINGTON     FAIR      53  43  68 E9        29.85R
PINE BLUFFS    FAIR      46  39  76 E3        29.92R

$$




USA.gov is the U.S. government's official web portal to all federal, state and local government web resources and services.